Location: The Saddle
(36.8333°N, 80.3417°W)
Time: 08:31:51
(UTC-04:00)

Vanguard 2 Rocket - Pass Details

Date: 30 January 2023
Orbit: 555 x 3316 km, 32.9° (Epoch: 27 March)

Event Time Altitude Azimuth Distance (km) Brightness Sun altitude
Rises 13:36:23 0° 260° (W) 2,727 9.7 33.7°
Reaches altitude 10° 13:38:32 10° 255° (WSW) 1,828 9.0 33.5°
Maximum altitude 13:42:22 52° 178° (S) 752 8.0 33.3°
Drops below altitude 10° 13:47:13 10° 102° (ESE) 2,304 9.0 33.0°
Sets 13:50:14 0° 98° (E) 3,542 9.8 32.7°
